Location: Scenic Heights
(38.0166°N, 120.2566°W)
Time: 23:21:48
(UTC+00:00)

H-2A R/B - Pass Details

Date: 03 August 2024
Orbit: 731 x 832 km, 98.2° (Epoch: 10 September)

Event Time Altitude Azimuth Distance (km) Brightness Sun altitude
Rises 12:16:10 0° 12° (NNE) 3,166 5.9 -9.6°
Reaches altitude 10° 12:18:26 10° 12° (NNE) 2,245 5.1 -9.3°
Maximum altitude 12:23:22 87° 285° (WNW) 749 2.0 -8.4°
Drops below altitude 10° 12:28:22 10° 196° (SSW) 2,272 4.0 -7.6°
Sets 12:30:40 0° 195° (SSW) 3,207 4.8 -7.2°
